Weather Roundup
Issued by NWS Chicago, IL

Home | Current Version | Previous Version | Text Only | Print | Product List | Glossary On
Versions: 1 2 3 4 5 6 7 8 9 10 11 12 13 14 15 16 17 18 19 20 21 22 23 24 25 26 27 28 29 30 31 32 33 34 35 36 37 38 39 40 41 42 43 44 45 46 47 48 49 50
000
NZUS59 KLOT 211010
HRRLOT

CHICAGO AREA WEATHER ROUNDUP
NATIONAL WEATHER SERVICE CHICAGO/ROMEOVILLE IL
500 AM CDT MON APR 21 2014

NOTE: "FAIR" INDICATES FEW OR NO CLOUDS BELOW 12,000 FEET WITH NO
SIGNIFICANT WEATHER AND/OR OBSTRUCTIONS TO VISIBILITY.

* THESE STATIONS ARE NOT UNDER NWS QUALITY CONTROL. THEY ALSO MAY NOT
  REPORT WEATHER SUCH AS PRECIPITATION OR FOG.

ILZ005-006-012>014-019>023-211100-
NORTHEAST ILLINOIS

CITY           SKY/WX    TMP DP  RH WIND       PRES   REMARKS
OHARE          CLOUDY    61  40  45 SW7       29.97F
MIDWAY         MOCLDY    61  43  51 SW6       29.98F
AURORA         MOCLDY    55  43  63 CALM      29.98F
LANSING*       MOCLDY    53  41  64 SW3       30.00S
JOLIET*        MOCLDY    55  43  63 SE3       29.99F
WAUKEGAN       CLOUDY    57  46  66 SW7       29.96F
DUPAGE AIRPORT CLOUDY    55  44  66 S5        29.97F
WHEELING       CLOUDY    61  44  53 CALM      29.98F
KANKAKEE*      MOCLDY    50  44  78 E3        30.01F
MORRIS*        PTCLDY    56  39  53 SE3       29.98S
LEWIS AIRPORT* MOCLDY    53  42  66 S9        29.99F
NORTHERLY IS     N/A     63  41  44 SW3         N/A
$$

WIZ051-052-058>065-066-070>072-211100-
SOUTHEAST WISCONSIN

CITY           SKY/WX    TMP DP  RH WIND       PRES   REMARKS
MILWAUKEE      CLOUDY    62  51  67 W5        29.95F
KENOSHA*       CLOUDY    59  47  64 SW9       29.96F
RACINE*        CLOUDY    63  47  55 SW6       29.96F
BURLINGTON     CLOUDY    56  49  75 W6        29.95F
WAUKESHA       LGT RAIN  55  50  82 SW6       29.96F
WEST BEND      CLOUDY    61  43  51 S5        29.94S
$$

INZ001>003-010>013-019-020-211100-
NORTHWEST INDIANA

CITY           SKY/WX    TMP DP  RH WIND       PRES   REMARKS
GARY*          PTCLDY    61  39  44 S10       30.00F
MICHIGAN CITY* NOT AVBL
RENSSELAER*    NOT AVBL
VALPARAISO     PTCLDY    53  38  56 S3        30.02F
$$

LMZ740>746-211100-
SOUTHERN LAKE MICHIGAN

STATION/POSITION TIME  SKY/WX   TEMP WIND        PRES    VSBY
                                AIR  DIR/SP/G
                 (UTC)          (F)  (DEG/KT/KT) (MB)    (MI)
HARRISON CRIB    1000            63  200/ 20/ 23   N/A
BURNHAM HARBOR   1000            63  200/  4/  8   N/A
CALUMET HARBOR   1000            61  190/  7/  9 1016.3S
BURNS HARBOR     NOT AVBL
MICHIGAN CITY    1000            62  160/ 10/ 14   N/A
$$

ABBREVIATIONS USED IN REMARKS
   TC - TEMPERATURE IN CELSIUS
  WCI - WIND CHILL INDEX
   HX - HEAT INDEX
  VSB - VISIBILITY
$$


USA.gov is the U.S. government's official web portal to all federal, state and local government web resources and services.